"datetime","temp","dp","rain_mm","uv","solar","mb","wind_mph","gust_mph","windchill","rh"
"2019-09-13 00:00:00",17.3,15.8,0.0,0.0,0,1028.2,0,0,"",91
"2019-09-13 00:01:00",17.3,15.8,0.0,0.0,0,1028.2,0,0,"",91
"2019-09-13 00:02:00",17.2,15.7,0.0,0.0,0,1028.2,0,0,"",91
"2019-09-13 00:03:00",17.2,15.9,0.0,0.0,0,1028.3,0,0,"",92
"2019-09-13 00:04:00",17.2,15.9,0.0,0.0,0,1028.3,0,0,"",92
"2019-09-13 00:05:00",17.2,15.9,0.0,0.0,0,1028.3,0,0,"",92
"2019-09-13 00:06:00",17.2,15.9,0.0,0.0,0,1028.3,0,0,"",92
"2019-09-13 00:07:00",17.2,15.9,0.0,0.0,0,1028.2,0,0,"",92
"2019-09-13 00:08:00",17.2,15.9,0.0,0.0,0,1028.2,0,0,"",92
"2019-09-13 00:09:00",17.2,15.9,0.0,0.0,0,1028.2,0,0,"",92
"2019-09-13 00:10:00",17.1,15.8,0.0,0.0,0,1028.2,0,0,"",92
"2019-09-13 00:11:00",17.1,15.8,0.0,0.0,0,1028.2,0,0,"",92
"2019-09-13 00:12:00",17.1,15.8,0.0,0.0,0,1028.2,0,0,"",92
"2019-09-13 00:13:00",17.1,15.8,0.0,0.0,0,1028.2,0,0,"",92
"2019-09-13 00:14:00",17.1,15.8,0.0,0.0,0,1028.2,0,0,"",92
"2019-09-13 00:15:00",17.1,15.8,0.0,0.0,0,1028.2,0,0,"",92
"2019-09-13 00:16:00",17.1,15.8,0.0,0.0,0,1028.2,0,0,"",92
"2019-09-13 00:17:00",17.1,15.8,0.0,0.0,0,1028.2,0,0,"",92
"2019-09-13 00:18:00",17.1,15.8,0.0,0.0,0,1028.2,0,0,"",92
"2019-09-13 00:19:00",17.1,15.8,0.0,0.0,0,1028.2,0,0,"",92
"2019-09-13 00:20:00",17.2,15.9,0.0,0.0,0,1028.3,0,0,"",92
"2019-09-13 00:21:00",17.2,15.9,0.0,0.0,0,1028.3,0,0,"",92
"2019-09-13 00:22:00",17.2,15.9,0.0,0.0,0,1028.3,0,0,"",92
"2019-09-13 00:23:00",17.2,15.9,0.0,0.0,0,1028.3,0,0,"",92
"2019-09-13 00:24:00",17.2,15.9,0.0,0.0,0,1028.3,0,0,"",92
"2019-09-13 00:25:00",17.2,15.9,0.0,0.0,0,1028.3,0,0,"",92
"2019-09-13 00:26:00",17.2,15.7,0.0,0.0,0,1028.3,0,0,"",91
"2019-09-13 00:27:00",17.2,15.7,0.0,0.0,0,1028.3,0,0,"",91
"2019-09-13 00:28:00",17.2,15.9,0.0,0.0,0,1028.3,0,0,"",92
"2019-09-13 00:29:00",17.2,15.9,0.0,0.0,0,1028.3,0,0,"",92
"2019-09-13 00:30:00",17.2,15.9,0.0,0.0,0,1028.3,0,0,"",92
"2019-09-13 00:31:00",17.2,15.9,0.0,0.0,0,1028.3,0,0,"",92
"2019-09-13 00:32:00",17.1,15.8,0.0,0.0,0,1028.3,0,0,"",92
"2019-09-13 00:33:00",17.2,15.9,0.0,0.0,0,1028.3,0,0,"",92
"2019-09-13 00:34:00",17.2,15.9,0.0,0.0,0,1028.3,0,0,"",92
"2019-09-13 00:35:00",17.1,15.8,0.0,0.0,0,1028.4,0,0,"",92
"2019-09-13 00:36:00",17.1,15.8,0.0,0.0,0,1028.4,0,0,"",92
"2019-09-13 00:37:00",17.1,15.8,0.0,0.0,0,1028.4,0,0,"",92
"2019-09-13 00:38:00",17.1,15.8,0.0,0.0,0,1028.4,0,0,"",92
"2019-09-13 00:39:00",17.1,15.8,0.0,0.0,0,1028.4,0,0,"",92
"2019-09-13 00:40:00",17.1,15.8,0.0,0.0,0,1028.4,0,0,"",92
"2019-09-13 00:41:00",17.1,15.8,0.0,0.0,0,1028.4,0,0,"",92
"2019-09-13 00:42:00",17.1,15.8,0.0,0.0,0,1028.4,0,0,"",92
"2019-09-13 00:43:00",17.1,15.8,0.0,0.0,0,1028.4,0,0,"",92
"2019-09-13 00:44:00",17.1,15.8,0.0,0.0,0,1028.4,0,0,"",92
"2019-09-13 00:45:00",17.1,15.8,0.0,0.0,0,1028.5,0,0,"",92
"2019-09-13 00:46:00",17.1,15.8,0.0,0.0,0,1028.5,0,0,"",92
"2019-09-13 00:47:00",17.1,15.8,0.0,0.0,0,1028.5,0,0,"",92
"2019-09-13 00:48:00",17.1,15.8,0.0,0.0,0,1028.5,0,0,"",92
"2019-09-13 00:49:00",17.2,15.9,0.0,0.0,0,1028.5,0,0,"",92
"2019-09-13 00:50:00",17.2,15.9,0.0,0.0,0,1028.5,0,0,"",92
"2019-09-13 00:51:00",17.2,15.9,0.0,0.0,0,1028.5,0,0,"",92
"2019-09-13 00:52:00",17.2,15.9,0.0,0.0,0,1028.6,0,0,"",92
"2019-09-13 00:53:00",17.2,15.9,0.0,0.0,0,1028.5,0,0,"",92
"2019-09-13 00:54:00",17.2,15.9,0.0,0.0,0,1028.5,0,0,"",92
"2019-09-13 00:55:00",17.2,15.9,0.0,0.0,0,1028.6,0,0,"",92
"2019-09-13 00:56:00",17.2,15.9,0.0,0.0,0,1028.6,0,0,"",92
"2019-09-13 00:57:00",17.2,15.9,0.0,0.0,0,1028.6,0,0,"",92
"2019-09-13 00:58:00",17.2,15.9,0.0,0.0,0,1028.6,0,0,"",92
"2019-09-13 00:59:00",17.2,15.9,0.0,0.0,0,1028.6,0,0,"",92
"2019-09-13 01:00:00",17.2,15.9,0.0,0.0,0,1028.6,0,0,"",92
"2019-09-13 01:01:00",17.2,15.9,0.0,0.0,0,1028.6,0,0,"",92
"2019-09-13 01:02:00",17.1,15.8,0.0,0.0,0,1028.7,0,0,"",92
"2019-09-13 01:03:00",17.1,15.8,0.0,0.0,0,1028.6,0,0,"",92
"2019-09-13 01:04:00",17.1,15.8,0.0,0.0,0,1028.6,0,0,"",92
"2019-09-13 01:05:00",17.2,15.9,0.0,0.0,0,1028.7,0,0,"",92
"2019-09-13 01:06:00",17.2,15.9,0.0,0.0,0,1028.7,0,0,"",92
"2019-09-13 01:07:00",17.1,15.8,0.0,0.0,0,1028.6,0,0,"",92
"2019-09-13 01:08:00",17.1,15.8,0.0,0.0,0,1028.6,0,0,"",92
"2019-09-13 01:09:00",17.1,15.8,0.0,0.0,0,1028.7,0,0,"",92
"2019-09-13 01:10:00",17.1,15.8,0.0,0.0,0,1028.7,0,0,"",92
"2019-09-13 01:11:00",17.1,15.8,0.0,0.0,0,1028.7,0,0,"",92
"2019-09-13 01:12:00",17.1,15.8,0.0,0.0,0,1028.7,0,0,"",92
"2019-09-13 01:13:00",17.1,15.8,0.0,0.0,0,1028.7,0,0,"",92
"2019-09-13 01:14:00",17.1,15.8,0.0,0.0,0,1028.7,0,0,"",92
"2019-09-13 01:15:00",17.1,15.8,0.0,0.0,0,1028.7,0,0,"",92
"2019-09-13 01:16:00",17.1,15.8,0.0,0.0,0,1028.7,0,0,"",92
"2019-09-13 01:17:00",17.1,15.8,0.0,0.0,0,1028.8,0,0,"",92
"2019-09-13 01:18:00",17.1,15.8,0.0,0.0,0,1028.8,0,0,"",92
"2019-09-13 01:19:00",17.1,15.8,0.0,0.0,0,1028.8,0,0,"",92
"2019-09-13 01:20:00",17.1,15.8,0.0,0.0,0,1028.8,0,0,"",92
"2019-09-13 01:21:00",17.2,15.9,0.0,0.0,0,1028.8,0,0,"",92
"2019-09-13 01:22:00",17.1,15.8,0.0,0.0,0,1028.8,0,0,"",92
"2019-09-13 01:23:00",17.1,15.8,0.0,0.0,0,1028.9,0,0,"",92
"2019-09-13 01:24:00",17.1,15.8,0.0,0.0,0,1028.8,0,0,"",92
"2019-09-13 01:25:00",17.1,15.8,0.0,0.0,0,1028.8,0,0,"",92
"2019-09-13 01:26:00",17.1,15.8,0.0,0.0,0,1028.9,0,0,"",92
"2019-09-13 01:27:00",17.1,15.8,0.0,0.0,0,1028.8,0,0,"",92
"2019-09-13 01:28:00",17.1,15.8,0.0,0.0,0,1028.8,0,0,"",92
"2019-09-13 01:29:00",17.1,15.8,0.0,0.0,0,1028.9,0,0,"",92
"2019-09-13 01:30:00",17.1,15.8,0.0,0.0,0,1028.9,0,0,"",92
"2019-09-13 01:31:00",17.1,15.8,0.0,0.0,0,1028.9,0,0,"",92
"2019-09-13 01:32:00",17.1,16.0,0.0,0.0,0,1028.8,0,0,"",93
"2019-09-13 01:33:00",17.1,16.0,0.0,0.0,0,1028.8,0,0,"",93
"2019-09-13 01:34:00",17.1,16.0,0.0,0.0,0,1028.8,0,0,"",93
"2019-09-13 01:35:00",17.1,16.0,0.0,0.0,0,1028.8,0,0,"",93
"2019-09-13 01:36:00",17.1,16.0,0.0,0.0,0,1028.9,0,0,"",93
"2019-09-13 01:37:00",17.1,16.0,0.0,0.0,0,1028.9,0,0,"",93
"2019-09-13 01:38:00",17.1,16.0,0.0,0.0,0,1028.9,0,0,"",93
"2019-09-13 01:39:00",17.1,16.0,0.0,0.0,0,1028.9,0,0,"",93
"2019-09-13 01:40:00",17.1,16.0,0.0,0.0,0,1028.9,0,0,"",93
"2019-09-13 01:41:00",17.1,16.0,0.0,0.0,0,1028.9,0,0,"",93
"2019-09-13 01:42:00",17.1,16.0,0.0,0.0,0,1028.9,0,0,"",93
"2019-09-13 01:43:00",17.1,16.0,0.0,0.0,0,1028.8,0,0,"",93
"2019-09-13 01:44:00",17.1,16.0,0.0,0.0,0,1028.9,0,0,"",93
"2019-09-13 01:45:00",17.1,16.0,0.0,0.0,0,1028.9,0,0,"",93
"2019-09-13 01:46:00",17.1,16.0,0.0,0.0,0,1028.8,0,0,"",93
"2019-09-13 01:47:00",17.1,16.0,0.0,0.0,0,1028.9,0,0,"",93
"2019-09-13 01:48:00",17.1,16.0,0.0,0.0,0,1028.9,0,0,"",93
"2019-09-13 01:49:00",17.1,16.0,0.0,0.0,0,1028.8,0,0,"",93
"2019-09-13 01:50:00",17.1,16.0,0.0,0.0,0,1028.8,0,0,"",93
"2019-09-13 01:51:00",17.1,16.0,0.0,0.0,0,1028.8,0,0,"",93
"2019-09-13 01:52:00",17.1,16.0,0.0,0.0,0,1028.8,0,0,"",93
"2019-09-13 01:53:00",17.0,15.9,0.0,0.0,0,1028.8,0,0,"",93
"2019-09-13 01:54:00",17.1,16.1,0.0,0.0,0,1028.8,0,0,"",94
"2019-09-13 01:55:00",17.1,16.1,0.0,0.0,0,1028.8,0,0,"",94
"2019-09-13 01:56:00",17.1,16.1,0.0,0.0,0,1028.8,0,0,"",94
"2019-09-13 01:57:00",17.1,16.1,0.0,0.0,0,1028.8,0,0,"",94
"2019-09-13 01:58:00",17.1,16.1,0.0,0.0,0,1028.8,0,0,"",94
"2019-09-13 01:59:00",17.1,16.1,0.0,0.0,0,1028.8,0,0,"",94
"2019-09-13 02:00:00",17.0,16.0,0.0,0.0,0,1028.8,0,0,"",94
"2019-09-13 02:01:00",17.1,16.1,0.0,0.0,0,1028.8,0,0,"",94
"2019-09-13 02:02:00",17.1,16.1,0.0,0.0,0,1028.8,0,0,"",94
"2019-09-13 02:03:00",17.0,16.0,0.0,0.0,0,1028.8,0,0,"",94
"2019-09-13 02:04:00",17.0,16.0,0.0,0.0,0,1028.8,0,0,"",94
"2019-09-13 02:05:00",17.0,16.0,0.0,0.0,0,1028.8,0,0,"",94
"2019-09-13 02:06:00",17.0,16.0,0.0,0.0,0,1028.8,0,0,"",94
"2019-09-13 02:07:00",17.0,16.0,0.0,0.0,0,1028.8,0,0,"",94
"2019-09-13 02:08:00",17.0,16.0,0.0,0.0,0,1028.8,0,0,"",94
"2019-09-13 02:09:00",17.0,16.0,0.0,0.0,0,1028.9,0,0,"",94
"2019-09-13 02:10:00",16.9,15.9,0.0,0.0,0,1028.8,0,0,"",94
"2019-09-13 02:11:00",17.0,16.0,0.0,0.0,0,1028.8,0,0,"",94
"2019-09-13 02:12:00",16.9,15.9,0.0,0.0,0,1028.8,0,0,"",94
"2019-09-13 02:13:00",16.9,15.9,0.0,0.0,0,1028.8,0,0,"",94
"2019-09-13 02:14:00",16.9,15.9,0.0,0.0,0,1028.8,0,0,"",94
"2019-09-13 02:15:00",16.9,15.9,0.0,0.0,0,1028.8,0,0,"",94
"2019-09-13 02:16:00",16.9,15.9,0.0,0.0,0,1028.8,0,0,"",94
"2019-09-13 02:17:00",16.9,15.9,0.0,0.0,0,1028.8,0,0,"",94
"2019-09-13 02:18:00",16.9,15.9,0.0,0.0,0,1028.8,0,0,"",94
"2019-09-13 02:19:00",16.9,15.9,0.0,0.0,0,1028.8,0,0,"",94
"2019-09-13 02:20:00",16.9,15.9,0.0,0.0,0,1028.8,0,0,"",94
"2019-09-13 02:21:00",16.9,15.9,0.0,0.0,0,1028.8,0,0,"",94
"2019-09-13 02:22:00",16.9,15.9,0.0,0.0,0,1028.8,0,0,"",94
"2019-09-13 02:23:00",16.9,15.9,0.0,0.0,0,1028.8,0,0,"",94
"2019-09-13 02:24:00",16.9,15.9,0.0,0.0,0,1028.8,0,0,"",94
"2019-09-13 02:25:00",16.9,15.9,0.0,0.0,0,1028.8,0,0,"",94
"2019-09-13 02:26:00",16.9,15.9,0.0,0.0,0,1028.8,0,0,"",94
"2019-09-13 02:27:00",16.9,15.9,0.0,0.0,0,1028.9,0,0,"",94
"2019-09-13 02:28:00",16.9,15.9,0.0,0.0,0,1028.8,0,0,"",94
"2019-09-13 02:29:00",16.9,15.9,0.0,0.0,0,1028.8,0,0,"",94
"2019-09-13 02:30:00",16.9,15.9,0.0,0.0,0,1028.8,0,0,"",94
"2019-09-13 02:31:00",16.9,15.9,0.0,0.0,0,1028.8,0,0,"",94
"2019-09-13 02:32:00",16.9,15.9,0.0,0.0,0,1028.8,0,0,"",94
"2019-09-13 02:33:00",16.9,15.9,0.0,0.0,0,1028.8,0,0,"",94
"2019-09-13 02:34:00",16.9,16.1,0.0,0.0,0,1028.8,0,0,"",95
"2019-09-13 02:35:00",16.9,16.1,0.0,0.0,0,1028.8,0,0,"",95
"2019-09-13 02:36:00",16.9,16.1,0.0,0.0,0,1028.8,0,0,"",95
"2019-09-13 02:37:00",16.9,15.9,0.0,0.0,0,1028.8,0,0,"",94
"2019-09-13 02:38:00",16.9,16.1,0.0,0.0,0,1028.8,0,0,"",95
"2019-09-13 02:39:00",16.9,16.1,0.0,0.0,0,1028.8,0,0,"",95
"2019-09-13 02:40:00",16.9,16.1,0.0,0.0,0,1028.8,0,0,"",95
"2019-09-13 02:41:00",16.9,16.1,0.0,0.0,0,1028.8,0,0,"",95
"2019-09-13 02:42:00",16.9,16.1,0.0,0.0,0,1028.8,0,0,"",95
"2019-09-13 02:43:00",16.9,16.1,0.0,0.0,0,1028.8,0,0,"",95
"2019-09-13 02:44:00",16.9,16.1,0.0,0.0,0,1028.8,0,0,"",95
"2019-09-13 02:45:00",16.9,16.1,0.0,0.0,0,1028.8,0,0,"",95
"2019-09-13 02:46:00",16.9,16.1,0.0,0.0,0,1028.9,0,0,"",95
"2019-09-13 02:47:00",16.9,16.1,0.0,0.0,0,1028.9,0,0,"",95
"2019-09-13 02:48:00",16.9,16.1,0.0,0.0,0,1028.9,0,0,"",95
"2019-09-13 02:49:00",16.9,16.1,0.0,0.0,0,1028.9,0,0,"",95
"2019-09-13 02:50:00",16.9,16.1,0.0,0.0,0,1028.9,0,0,"",95
"2019-09-13 02:51:00",16.9,16.1,0.0,0.0,0,1028.9,0,0,"",95
"2019-09-13 02:52:00",16.9,16.1,0.0,0.0,0,1028.9,0,0,"",95
"2019-09-13 02:53:00",16.8,16.0,0.0,0.0,0,1029.0,0,0,"",95
"2019-09-13 02:54:00",16.8,16.0,0.0,0.0,0,1028.9,0,0,"",95
"2019-09-13 02:55:00",16.8,16.0,0.0,0.0,0,1028.9,0,0,"",95
"2019-09-13 02:56:00",16.8,16.0,0.0,0.0,0,1029.0,0,0,"",95
"2019-09-13 02:57:00",16.8,16.0,0.0,0.0,0,1029.0,0,0,"",95
"2019-09-13 02:58:00",16.9,16.1,0.0,0.0,0,1029.0,0,0,"",95
"2019-09-13 02:59:00",16.8,16.0,0.0,0.0,0,1029.0,0,0,"",95
"2019-09-13 03:00:00",16.9,16.1,0.0,0.0,0,1029.0,0,0,"",95
"2019-09-13 03:01:00",16.8,16.0,0.0,0.0,0,1029.0,0,0,"",95
"2019-09-13 03:02:00",16.9,16.1,0.0,0.0,0,1029.0,0,0,"",95
"2019-09-13 03:03:00",16.8,16.0,0.0,0.0,0,1029.1,0,0,"",95
"2019-09-13 03:04:00",16.9,16.1,0.0,0.0,0,1029.0,0,0,"",95
"2019-09-13 03:05:00",16.9,16.1,0.0,0.0,0,1029.0,0,0,"",95
"2019-09-13 03:06:00",16.9,16.1,0.0,0.0,0,1029.1,0,0,"",95
"2019-09-13 03:07:00",16.9,16.1,0.0,0.0,0,1029.1,0,0,"",95
"2019-09-13 03:08:00",16.9,16.1,0.0,0.0,0,1029.1,0,0,"",95
"2019-09-13 03:09:00",16.9,16.1,0.0,0.0,0,1029.1,0,0,"",95
"2019-09-13 03:10:00",16.8,16.0,0.0,0.0,0,1029.1,0,0,"",95
"2019-09-13 03:11:00",16.8,16.0,0.0,0.0,0,1029.1,0,0,"",95
"2019-09-13 03:12:00",16.8,16.0,0.0,0.0,0,1029.1,0,0,"",95
"2019-09-13 03:13:00",16.8,16.0,0.0,0.0,0,1029.1,0,0,"",95
"2019-09-13 03:14:00",16.8,16.0,0.0,0.0,0,1029.1,0,0,"",95
"2019-09-13 03:15:00",16.8,16.0,0.0,0.0,0,1029.1,0,2,"",95
"2019-09-13 03:16:00",16.8,16.0,0.0,0.0,0,1029.1,0,1,"",95
"2019-09-13 03:17:00",16.8,16.0,0.0,0.0,0,1029.1,0,1,"",95
"2019-09-13 03:18:00",16.8,16.0,0.0,0.0,0,1029.2,0,1,"",95
"2019-09-13 03:19:00",16.8,16.0,0.0,0.0,0,1029.1,0,0,"",95
"2019-09-13 03:20:00",16.8,16.0,0.0,0.0,0,1029.2,0,0,"",95
"2019-09-13 03:21:00",16.8,16.0,0.0,0.0,0,1029.1,0,0,"",95
"2019-09-13 03:22:00",16.8,16.0,0.0,0.0,0,1029.1,0,0,"",95
"2019-09-13 03:23:00",16.8,16.0,0.0,0.0,0,1029.1,0,0,"",95
"2019-09-13 03:24:00",16.8,16.0,0.0,0.0,0,1029.1,0,0,"",95
"2019-09-13 03:25:00",16.8,16.0,0.0,0.0,0,1029.1,0,0,"",95
"2019-09-13 03:26:00",16.8,16.0,0.0,0.0,0,1029.1,0,0,"",95
"2019-09-13 03:27:00",16.8,16.0,0.0,0.0,0,1029.1,0,0,"",95
"2019-09-13 03:28:00",16.8,16.0,0.0,0.0,0,1029.1,0,0,"",95
"2019-09-13 03:29:00",16.8,16.0,0.0,0.0,0,1029.2,0,0,"",95
"2019-09-13 03:30:00",16.8,16.0,0.0,0.0,0,1029.1,0,0,"",95
"2019-09-13 03:31:00",16.8,16.0,0.0,0.0,0,1029.2,0,0,"",95
"2019-09-13 03:32:00",16.8,16.0,0.0,0.0,0,1029.2,0,0,"",95
"2019-09-13 03:33:00",16.8,16.0,0.0,0.0,0,1029.2,0,0,"",95
"2019-09-13 03:34:00",16.8,16.0,0.0,0.0,0,1029.2,0,0,"",95
"2019-09-13 03:35:00",16.8,16.0,0.0,0.0,0,1029.2,0,0,"",95
"2019-09-13 03:36:00",16.8,16.0,0.0,0.0,0,1029.2,0,0,"",95
"2019-09-13 03:37:00",16.8,16.0,0.0,0.0,0,1029.2,0,0,"",95
"2019-09-13 03:38:00",16.8,16.0,0.0,0.0,0,1029.2,0,0,"",95
"2019-09-13 03:39:00",16.8,16.0,0.0,0.0,0,1029.2,0,0,"",95
"2019-09-13 03:40:00",16.8,16.0,0.0,0.0,0,1029.2,0,0,"",95
"2019-09-13 03:41:00",16.8,16.0,0.0,0.0,0,1029.2,0,0,"",95
"2019-09-13 03:42:00",16.8,16.0,0.0,0.0,0,1029.2,0,0,"",95
"2019-09-13 03:43:00",16.8,16.0,0.0,0.0,0,1029.3,0,0,"",95
"2019-09-13 03:44:00",16.8,16.0,0.0,0.0,0,1029.2,0,0,"",95
"2019-09-13 03:45:00",16.8,16.0,0.0,0.0,0,1029.2,0,0,"",95
"2019-09-13 03:46:00",16.8,16.0,0.0,0.0,0,1029.3,0,0,"",95
"2019-09-13 03:47:00",16.8,16.0,0.0,0.0,0,1029.3,0,0,"",95
"2019-09-13 03:48:00",16.8,16.0,0.0,0.0,0,1029.3,0,0,"",95
"2019-09-13 03:49:00",16.8,16.0,0.0,0.0,0,1029.3,0,0,"",95
"2019-09-13 03:50:00",16.8,16.0,0.0,0.0,0,1029.3,0,0,"",95
"2019-09-13 03:51:00",16.8,16.0,0.0,0.0,0,1029.3,0,0,"",95
"2019-09-13 03:52:00",16.8,16.0,0.0,0.0,0,1029.3,0,0,"",95
"2019-09-13 03:53:00",16.8,16.0,0.0,0.0,0,1029.3,0,0,"",95
"2019-09-13 03:54:00",16.8,16.0,0.0,0.0,0,1029.3,0,0,"",95
"2019-09-13 03:55:00",16.8,16.0,0.0,0.0,0,1029.3,0,2,"",95
"2019-09-13 03:56:00",16.8,16.0,0.0,0.0,0,1029.3,2,3,"",95
"2019-09-13 03:57:00",16.8,16.0,0.0,0.0,0,1029.4,2,3,"",95
"2019-09-13 03:58:00",16.8,16.0,0.0,0.0,0,1029.4,1,2,"",95
"2019-09-13 03:59:00",16.8,16.0,0.0,0.0,0,1029.4,0,1,"",95
"2019-09-13 04:00:00",16.7,15.9,0.0,0.0,0,1029.4,1,2,"",95
"2019-09-13 04:01:00",16.7,15.9,0.0,0.0,0,1029.5,1,2,"",95
"2019-09-13 04:02:00",16.7,15.9,0.0,0.0,0,1029.5,1,1,"",95
"2019-09-13 04:03:00",16.6,15.8,0.0,0.0,0,1029.5,0,1,"",95
"2019-09-13 04:04:00",16.6,15.8,0.0,0.0,0,1029.5,0,1,"",95
"2019-09-13 04:05:00",16.6,15.8,0.0,0.0,0,1029.5,0,0,"",95
"2019-09-13 04:06:00",16.6,15.8,0.0,0.0,0,1029.5,0,1,"",95
"2019-09-13 04:07:00",16.6,15.8,0.0,0.0,0,1029.6,0,1,"",95
"2019-09-13 04:08:00",16.5,15.7,0.2,0.0,0,1029.6,0,1,"",95
"2019-09-13 04:09:00",16.4,15.6,0.2,0.0,0,1029.6,0,1,"",95
"2019-09-13 04:10:00",16.4,15.6,0.2,0.0,0,1029.7,0,1,"",95
"2019-09-13 04:11:00",16.4,15.6,0.2,0.0,0,1029.7,0,1,"",95
"2019-09-13 04:12:00",16.4,15.6,0.2,0.0,0,1029.7,0,1,"",95
"2019-09-13 04:13:00",16.3,15.5,0.2,0.0,0,1029.6,0,1,"",95
"2019-09-13 04:14:00",16.3,15.5,0.2,0.0,0,1029.7,0,1,"",95
"2019-09-13 04:15:00",16.3,15.5,0.2,0.0,0,1029.7,0,0,"",95
"2019-09-13 04:16:00",16.3,15.5,0.2,0.0,0,1029.7,0,0,"",95
"2019-09-13 04:17:00",16.2,15.4,0.2,0.0,0,1029.6,0,0,"",95
"2019-09-13 04:18:00",16.3,15.5,0.2,0.0,0,1029.7,0,0,"",95
"2019-09-13 04:19:00",16.2,15.4,0.2,0.0,0,1029.7,0,0,"",95
"2019-09-13 04:20:00",16.2,15.4,0.2,0.0,0,1029.7,0,0,"",95
"2019-09-13 04:21:00",16.2,15.4,0.2,0.0,0,1029.6,0,0,"",95
"2019-09-13 04:22:00",16.2,15.4,0.2,0.0,0,1029.7,0,0,"",95
"2019-09-13 04:23:00",16.1,15.3,0.2,0.0,0,1029.7,0,0,"",95
"2019-09-13 04:24:00",16.2,15.4,0.2,0.0,0,1029.7,0,1,"",95
"2019-09-13 04:25:00",16.2,15.4,0.2,0.0,0,1029.7,0,0,"",95
"2019-09-13 04:26:00",16.2,15.4,0.2,0.0,0,1029.7,0,0,"",95
"2019-09-13 04:27:00",16.2,15.4,0.2,0.0,0,1029.7,1,3,"",95
"2019-09-13 04:28:00",16.1,15.3,0.2,0.0,0,1029.7,0,0,"",95
"2019-09-13 04:29:00",16.1,15.3,0.2,0.0,0,1029.8,0,0,"",95
"2019-09-13 04:30:00",16.1,15.3,0.2,0.0,0,1029.8,0,0,"",95
"2019-09-13 04:31:00",16.1,15.3,0.2,0.0,0,1029.8,0,0,"",95
"2019-09-13 04:32:00",16.1,15.3,0.2,0.0,0,1029.8,0,0,"",95
"2019-09-13 04:33:00",16.0,15.2,0.2,0.0,0,1029.9,0,0,"",95
"2019-09-13 04:34:00",16.0,15.2,0.2,0.0,0,1029.9,0,1,"",95
"2019-09-13 04:35:00",16.0,15.2,0.2,0.0,0,1029.9,0,0,"",95
"2019-09-13 04:36:00",16.0,15.2,0.2,0.0,0,1029.8,0,0,"",95
"2019-09-13 04:37:00",15.9,15.1,0.2,0.0,0,1029.9,0,0,"",95
"2019-09-13 04:38:00",15.9,15.1,0.2,0.0,0,1029.9,0,0,"",95
"2019-09-13 04:39:00",15.9,15.1,0.2,0.0,0,1029.9,0,1,"",95
"2019-09-13 04:40:00",15.9,15.1,0.2,0.0,0,1029.9,0,1,"",95
"2019-09-13 04:41:00",15.9,14.9,0.2,0.0,0,1029.9,0,0,"",94
"2019-09-13 04:42:00",15.8,14.8,0.2,0.0,0,1029.9,0,1,"",94
"2019-09-13 04:43:00",15.8,14.8,0.2,0.0,0,1029.9,0,0,"",94
"2019-09-13 04:44:00",15.8,15.0,0.2,0.0,0,1030.0,0,0,"",95
"2019-09-13 04:45:00",15.7,14.9,0.2,0.0,0,1030.0,0,0,"",95
"2019-09-13 04:46:00",15.7,14.9,0.2,0.0,0,1030.0,0,0,"",95
"2019-09-13 04:47:00",15.8,15.0,0.2,0.0,0,1030.0,0,2,"",95
"2019-09-13 04:48:00",15.8,15.0,0.2,0.0,0,1030.0,1,2,"",95
"2019-09-13 04:49:00",15.8,15.0,0.2,0.0,0,1030.0,0,1,"",95
"2019-09-13 04:50:00",15.7,14.9,0.2,0.0,0,1030.1,1,2,"",95
"2019-09-13 04:51:00",15.7,14.9,0.2,0.0,0,1030.1,0,1,"",95
"2019-09-13 04:52:00",15.7,14.9,0.2,0.0,0,1030.1,0,0,"",95
"2019-09-13 04:53:00",15.7,14.9,0.2,0.0,0,1030.1,1,2,"",95
"2019-09-13 04:54:00",15.7,14.9,0.2,0.0,0,1030.2,0,1,"",95
"2019-09-13 04:55:00",15.7,14.9,0.2,0.0,0,1030.2,0,1,"",95
"2019-09-13 04:56:00",15.7,14.9,0.2,0.0,0,1030.2,0,1,"",95
"2019-09-13 04:57:00",15.7,14.9,0.2,0.0,0,1030.2,1,2,"",95
"2019-09-13 04:58:00",15.7,14.9,0.2,0.0,0,1030.3,2,3,"",95
"2019-09-13 04:59:00",15.7,14.9,0.2,0.0,0,1030.3,0,1,"",95
"2019-09-13 05:00:00",15.6,14.8,0.2,0.0,0,1030.4,0,0,"",95
"2019-09-13 05:01:00",15.6,14.6,0.2,0.0,0,1030.4,0,1,"",94
"2019-09-13 05:02:00",15.6,14.6,0.2,0.0,0,1030.5,0,2,"",94
"2019-09-13 05:03:00",15.6,14.6,0.2,0.0,0,1030.4,0,0,"",94
"2019-09-13 05:04:00",15.6,14.6,0.2,0.0,0,1030.5,0,0,"",94
"2019-09-13 05:05:00",15.5,14.5,0.2,0.0,0,1030.5,0,0,"",94
"2019-09-13 05:06:00",15.4,14.4,0.2,0.0,0,1030.5,0,0,"",94
"2019-09-13 05:07:00",15.4,14.4,0.2,0.0,0,1030.5,0,0,"",94
"2019-09-13 05:08:00",15.4,14.4,0.2,0.0,0,1030.5,0,0,"",94
"2019-09-13 05:09:00",15.4,14.4,0.2,0.0,0,1030.5,0,0,"",94
"2019-09-13 05:10:00",15.3,14.3,0.2,0.0,0,1030.5,0,0,"",94
"2019-09-13 05:11:00",15.3,14.3,0.2,0.0,0,1030.5,0,1,"",94
"2019-09-13 05:12:00",15.3,14.3,0.2,0.0,0,1030.6,0,0,"",94
"2019-09-13 05:13:00",15.3,14.2,0.2,0.0,0,1030.6,0,0,"",93
"2019-09-13 05:14:00",15.3,14.3,0.2,0.0,0,1030.6,0,0,"",94
"2019-09-13 05:15:00",15.3,14.3,0.2,0.0,0,1030.7,0,0,"",94
"2019-09-13 05:16:00",15.3,14.2,0.2,0.0,0,1030.6,0,0,"",93
"2019-09-13 05:17:00",15.2,14.1,0.2,0.0,0,1030.6,0,0,"",93
"2019-09-13 05:18:00",15.2,14.1,0.2,0.0,0,1030.6,0,0,"",93
"2019-09-13 05:19:00",15.2,14.1,0.2,0.0,0,1030.6,0,0,"",93
"2019-09-13 05:20:00",15.2,14.1,0.2,0.0,0,1030.6,0,0,"",93
"2019-09-13 05:21:00",15.1,14.0,0.2,0.0,0,1030.7,0,0,"",93
"2019-09-13 05:22:00",15.1,14.0,0.2,0.0,0,1030.7,0,0,"",93
"2019-09-13 05:23:00",15.1,14.0,0.2,0.0,0,1030.7,0,0,"",93
"2019-09-13 05:24:00",15.0,13.9,0.2,0.0,0,1030.7,0,0,"",93
"2019-09-13 05:25:00",15.0,13.9,0.2,0.0,0,1030.7,0,0,"",93
"2019-09-13 05:26:00",14.9,13.8,0.2,0.0,0,1030.7,0,0,"",93
"2019-09-13 05:27:00",14.9,13.6,0.2,0.0,0,1030.7,0,0,"",92
"2019-09-13 05:28:00",14.9,13.8,0.2,0.0,0,1030.7,0,0,"",93
"2019-09-13 05:29:00",14.9,13.8,0.2,0.0,0,1030.7,0,0,"",93
"2019-09-13 05:30:00",14.8,13.5,0.2,0.0,0,1030.7,0,0,"",92
"2019-09-13 05:31:00",14.8,13.7,0.2,0.0,0,1030.7,0,0,"",93
"2019-09-13 05:32:00",14.8,13.7,0.2,0.0,0,1030.7,0,0,"",93
"2019-09-13 05:33:00",14.8,13.7,0.2,0.0,0,1030.8,0,0,"",93
"2019-09-13 05:34:00",14.8,13.7,0.2,0.0,0,1030.8,0,0,"",93
"2019-09-13 05:35:00",14.8,13.5,0.2,0.0,0,1030.8,0,0,"",92
"2019-09-13 05:36:00",14.7,13.4,0.2,0.0,0,1030.8,0,0,"",92
"2019-09-13 05:37:00",14.7,13.4,0.2,0.0,0,1030.8,0,0,"",92
"2019-09-13 05:38:00",14.6,13.3,0.2,0.0,0,1030.8,1,2,"",92
"2019-09-13 05:39:00",14.6,13.3,0.2,0.0,0,1030.8,0,1,"",92
"2019-09-13 05:40:00",14.6,13.1,0.2,0.0,0,1030.8,1,2,"",91
"2019-09-13 05:41:00",14.6,13.1,0.2,0.0,0,1030.8,0,2,"",91
"2019-09-13 05:42:00",14.5,13.0,0.2,0.0,0,1030.8,0,0,"",91
"2019-09-13 05:43:00",14.5,13.0,0.2,0.0,0,1030.9,0,0,"",91
"2019-09-13 05:44:00",14.5,13.2,0.2,0.0,0,1030.9,0,0,"",92
"2019-09-13 05:45:00",14.5,13.2,0.2,0.0,0,1030.9,0,0,"",92
"2019-09-13 05:46:00",14.4,12.9,0.2,0.0,0,1030.9,0,0,"",91
"2019-09-13 05:47:00",14.4,12.9,0.2,0.0,0,1030.9,0,0,"",91
"2019-09-13 05:48:00",14.4,12.9,0.2,0.0,0,1031.0,0,1,"",91
"2019-09-13 05:49:00",14.3,12.7,0.2,0.0,0,1031.0,0,1,"",90
"2019-09-13 05:50:00",14.3,12.7,0.2,0.0,0,1031.0,0,0,"",90
"2019-09-13 05:51:00",14.3,12.7,0.2,0.0,0,1031.0,0,0,"",90
"2019-09-13 05:52:00",14.3,12.7,0.2,0.0,0,1031.0,0,1,"",90
"2019-09-13 05:53:00",14.3,12.7,0.2,0.0,0,1031.0,0,1,"",90
"2019-09-13 05:54:00",14.3,12.7,0.2,0.0,0,1031.0,0,1,"",90
"2019-09-13 05:55:00",14.3,12.5,0.2,0.0,0,1031.0,0,1,"",89
"2019-09-13 05:56:00",14.3,12.5,0.2,0.0,0,1031.0,0,1,"",89
"2019-09-13 05:57:00",14.3,12.5,0.2,0.0,0,1031.1,1,2,"",89
"2019-09-13 05:58:00",14.3,12.5,0.2,0.0,0,1031.1,1,2,"",89
"2019-09-13 05:59:00",14.3,12.5,0.2,0.0,0,1031.1,0,1,"",89
"2019-09-13 06:00:00",14.3,12.5,0.2,0.0,0,1031.1,1,2,"",89
"2019-09-13 06:01:00",14.2,12.4,0.2,0.0,0,1031.1,0,1,"",89
"2019-09-13 06:02:00",14.2,12.4,0.2,0.0,0,1031.1,0,0,"",89
"2019-09-13 06:03:00",14.2,12.4,0.2,0.0,0,1031.2,0,0,"",89
"2019-09-13 06:04:00",14.2,12.4,0.2,0.0,0,1031.2,0,1,"",89
"2019-09-13 06:05:00",14.2,12.4,0.2,0.0,0,1031.2,0,0,"",89
"2019-09-13 06:06:00",14.2,12.2,0.2,0.0,0,1031.3,0,0,"",88
"2019-09-13 06:07:00",14.1,12.3,0.2,0.0,0,1031.3,0,0,"",89
"2019-09-13 06:08:00",14.1,12.3,0.2,0.0,0,1031.3,0,0,"",89
"2019-09-13 06:09:00",14.1,12.1,0.2,0.0,0,1031.3,0,0,"",88
"2019-09-13 06:10:00",14.1,12.3,0.2,0.0,0,1031.3,0,0,"",89
"2019-09-13 06:11:00",14.1,12.3,0.2,0.0,0,1031.3,0,0,"",89
"2019-09-13 06:12:00",14.1,12.3,0.2,0.0,0,1031.3,0,0,"",89
"2019-09-13 06:13:00",14.1,12.3,0.2,0.0,0,1031.3,0,0,"",89
"2019-09-13 06:14:00",14.1,12.3,0.2,0.0,0,1031.4,0,0,"",89
"2019-09-13 06:15:00",14.0,12.2,0.2,0.0,0,1031.4,0,0,"",89
"2019-09-13 06:16:00",14.0,12.2,0.2,0.0,0,1031.4,0,0,"",89
"2019-09-13 06:17:00",14.0,12.0,0.2,0.0,0,1031.5,0,0,"",88
"2019-09-13 06:18:00",14.0,12.0,0.2,0.0,0,1031.5,0,0,"",88
"2019-09-13 06:19:00",14.0,12.2,0.2,0.0,0,1031.5,0,0,"",89
"2019-09-13 06:20:00",13.9,12.1,0.2,0.0,0,1031.4,0,1,"",89
"2019-09-13 06:21:00",13.9,11.9,0.2,0.0,0,1031.5,0,0,"",88
"2019-09-13 06:22:00",13.9,11.8,0.2,0.0,0,1031.4,0,0,"",87
"2019-09-13 06:23:00",14.0,12.0,0.2,0.0,0,1031.5,0,2,"",88
"2019-09-13 06:24:00",14.0,12.0,0.2,0.0,0,1031.6,0,0,"",88
"2019-09-13 06:25:00",14.0,12.0,0.2,0.0,0,1031.6,0,0,"",88
"2019-09-13 06:26:00",14.0,12.0,0.2,0.0,0,1031.6,0,0,"",88
"2019-09-13 06:27:00",14.0,12.0,0.2,0.0,0,1031.6,0,0,"",88
"2019-09-13 06:28:00",14.0,11.9,0.2,0.0,0,1031.6,0,1,"",87
"2019-09-13 06:29:00",14.0,12.0,0.2,0.0,0,1031.6,0,1,"",88
"2019-09-13 06:30:00",13.9,11.8,0.2,0.0,0,1031.6,0,0,"",87
"2019-09-13 06:31:00",13.9,11.8,0.2,0.0,0,1031.6,0,0,"",87
"2019-09-13 06:32:00",13.9,11.8,0.2,0.0,0,1031.7,0,0,"",87
"2019-09-13 06:33:00",13.9,11.8,0.2,0.0,0,1031.6,0,0,"",87
"2019-09-13 06:34:00",13.9,11.8,0.2,0.0,0,1031.7,0,0,"",87
"2019-09-13 06:35:00",13.9,11.6,0.2,0.0,0,1031.6,0,0,"",86
"2019-09-13 06:36:00",13.9,11.6,0.2,0.0,0,1031.6,0,0,"",86
"2019-09-13 06:37:00",13.9,11.6,0.2,0.0,0,1031.6,0,0,"",86
"2019-09-13 06:38:00",13.9,11.6,0.2,0.0,0,1031.6,0,0,"",86
"2019-09-13 06:39:00",13.9,11.6,0.2,0.0,0,1031.7,0,0,"",86
"2019-09-13 06:40:00",13.9,11.6,0.2,0.0,0,1031.6,0,1,"",86
"2019-09-13 06:41:00",13.9,11.6,0.2,0.0,0,1031.6,0,1,"",86
"2019-09-13 06:42:00",13.9,11.4,0.2,0.0,0,1031.6,0,1,"",85
"2019-09-13 06:43:00",13.9,11.4,0.2,0.0,0,1031.6,1,3,"",85
"2019-09-13 06:44:00",13.9,11.6,0.2,0.0,0,1031.6,0,1,"",86